Weather Roundup
Issued by NWS Chicago, IL

Home | Current Version | Previous Version | Text Only | Print | Product List | Glossary On
Versions: 1 2 3 4 5 6 7 8 9 10 11 12 13 14 15 16 17 18 19 20 21 22 23 24 25 26 27 28 29 30 31 32 33 34 35 36 37 38 39 40 41 42 43 44 45 46 47 48 49 50
000
NZUS59 KLOT 220408
HRRLOT

CHICAGO AREA WEATHER ROUNDUP
NATIONAL WEATHER SERVICE CHICAGO/ROMEOVILLE IL
1100 PM CDT SAT APR 21 2018

NOTE: "FAIR" INDICATES FEW OR NO CLOUDS BELOW 12,000 FEET WITH NO
SIGNIFICANT WEATHER AND/OR OBSTRUCTIONS TO VISIBILITY.

* THESE STATIONS ARE NOT UNDER NWS QUALITY CONTROL. THEY ALSO MAY NOT
  REPORT WEATHER SUCH AS PRECIPITATION OR FOG.

ILZ005-006-012>014-019>023-220500-
NORTHEAST ILLINOIS

CITY           SKY/WX    TMP DP  RH WIND       PRES   REMARKS
OHARE          CLOUDY    46  19  34 N7        30.38F
MIDWAY         CLOUDY    47  17  30 NE8       30.39F
AURORA           N/A     45  24  43 NE9       30.36F
LANSING*         N/A     43  28  54 CALM      30.38F
JOLIET*          N/A     46  22  38 NE8       30.36F
WAUKEGAN         N/A     38  27  64 CALM      30.40R
DUPAGE AIRPORT   N/A     42  25  50 NE3       30.37F
WHEELING         N/A     44  21  40 N3        30.41F
KANKAKEE*        N/A     43  29  56 NE9       30.36S
MORRIS*          N/A     42  29  58 CALM      30.36S
LEWIS AIRPORT*   N/A     44  22  42 NE9       30.37F
NORTHERLY ISL    N/A     42  24  49 N5          N/A
$$

WIZ051-052-058>065-066-070>072-220500-
SOUTHEAST WISCONSIN

CITY           SKY/WX    TMP DP  RH WIND       PRES   REMARKS
MILWAUKEE      MOCLDY    45  23  42 CALM      30.40S
KENOSHA*       CLOUDY    42  23  46 W3        30.40R
RACINE*          N/A     38  25  59 W3        30.41S
BURLINGTON     MOCLDY    39  29  69 CALM      30.40S
WAUKESHA         N/A     39  23  52 CALM      30.40S
WEST BEND        N/A     36  28  75 CALM      30.39S
$$

INZ001>003-010>013-019-020-220500-
NORTHWEST INDIANA

CITY           SKY/WX    TMP DP  RH WIND       PRES   REMARKS
GARY*            N/A     43  27  53 NE5       30.39F
MICHIGAN CITY* NOT AVBL
RENSSELAER*    NOT AVBL
VALPARAISO       N/A     45  29  53 N5        30.37F
$$

LMZ740>746-220500-
SOUTHERN LAKE MICHIGAN

STATION/POSITION TIME  SKY/WX   TEMP WIND        PRES    VSBY
                                AIR  DIR/SP/G
                 (UTC)          (F)  (DEG/KT/KT) (MB)    (MI)
HARRISON CRIB    0340            43  350/  4/  5   N/A
BURNHAM HARBOR   0400            42  360/  4/  5   N/A
CALUMET HARBOR   0348            42   10/  5/  8 1028.2F
BURNS HARBOR     0340            42   60/  6/  7 1029.5S
MICHIGAN CITY    0340            41   30/  7/  7   N/A
$$

ABBREVIATIONS USED IN REMARKS
   TC - TEMPERATURE IN CELSIUS
  WCI - WIND CHILL INDEX
   HX - HEAT INDEX
  VSB - VISIBILITY
$$




USA.gov is the U.S. government's official web portal to all federal, state and local government web resources and services.